This is the latest recevied weather packets stored in our database for station/object K0SNA. If no packets are shown the sender has not sent any weather packets the latest 10 day(s).
| Time | Temp. | Humidity | Pressure | Rain* | Wind** | Luminosity | Snow |
|---|---|---|---|---|---|---|---|
| 1777557980 | 5° C | 61% | 1019.2 hPa | 0 mm | - | 325 W/m² | - |
| 1777557677 | 5° C | 60% | 1019.2 hPa | 0 mm | - | 313 W/m² | - |
| 1777557373 | 5° C | 60% | 1019.1 hPa | 0 mm | - | 298 W/m² | - |
| 1777557069 | 5° C | 60% | 1019.1 hPa | 0 mm | - | 283 W/m² | - |
| 1777556765 | 4.44° C | 62% | 1019.1 hPa | 0 mm | - | 271 W/m² | - |
| 1777556462 | 4.44° C | 63% | 1019.2 hPa | 0 mm | - | 258 W/m² | - |
| 1777556161 | 3.89° C | 63% | 1019.1 hPa | 0 mm | - | 246 W/m² | - |
| 1777555857 | 3.89° C | 63% | 1019 hPa | 0 mm | - | 231 W/m² | - |
| 1777555553 | 3.89° C | 64% | 1018.7 hPa | 0 mm | - | 217 W/m² | - |
| 1777555250 | 3.89° C | 64% | 1019.1 hPa | 0 mm | - | 204 W/m² | - |
| 1777554947 | 3.89° C | 64% | 1018.9 hPa | 0 mm | - | 192 W/m² | - |
| 1777554643 | 3.89° C | 64% | 1019 hPa | 0 mm | - | 179 W/m² | - |
| 1777554340 | 3.89° C | 65% | 1019.1 hPa | 0 mm | - | 167 W/m² | - |
| 1777554037 | 3.89° C | 64% | 1019.1 hPa | 0 mm | - | 155 W/m² | - |
| 1777553733 | 3.33° C | 65% | 1019.2 hPa | 0 mm | - | 142 W/m² | - |
| 1777553431 | 3.33° C | 65% | 1019 hPa | 0 mm | - | 129 W/m² | - |
| 1777553127 | 3.33° C | 65% | 1019 hPa | 0 mm | - | 115 W/m² | - |
| 1777552826 | 3.33° C | 65% | 1018.8 hPa | 0 mm | - | 106 W/m² | - |
| 1777552522 | 3.33° C | 66% | 1019 hPa | 0 mm | - | 96 W/m² | - |
| 1777552219 | 3.33° C | 67% | 1019 hPa | 0 mm | - | 87 W/m² | - |
| 1777551916 | 2.78° C | 67% | 1018.7 hPa | 0 mm | - | 77 W/m² | - |
| 1777551613 | 2.78° C | 68% | 1018.9 hPa | 0 mm | - | 64 W/m² | - |
| 1777551311 | 2.78° C | 69% | 1019.1 hPa | 0 mm | - | 46 W/m² | - |
| 1777551007 | 2.78° C | 69% | 1018.8 hPa | 0 mm | - | 32 W/m² | - |
| 1777550704 | 2.78° C | 69% | 1019.1 hPa | 0 mm | - | 31 W/m² | - |
* Rain latest hour (hover to see other rain measurements)
** Current wind speed in m/s (hover to see current wind gust speed)